Weather History for PAKF - September, 2013

Change the Weather History Date:

Friday, September 6, 2013

  Actual Average (PACD) Record (PACD)
Temperature  
Mean Temperature 49 °F 50 °F  
Max Temperature 48 °F 55 °F 65 °F (1947)
Min Temperature 46 °F 46 °F 32 °F (2012)
Degree Days  
Heating Degree Days 16 15  
Month to date heating degree days 86  
Since 1 July heating degree days 930  
Cooling Degree Days 0    
Month to date cooling degree days  
Year to date cooling degree days  
Moisture  
Dew Point 45 °F    
Average Humidity 87    
Maximum Humidity 100    
Minimum Humidity 71    
Precipitation  
Precipitation 0.09 in 0.16 in 1.81 in (1955)
Month to date precipitation 0.87  
Year to date precipitation 23.61  
Snow  
Snow 0.00 in 0.00 in 0.00 in (2014)
Month to date snowfall 0.0  
Since 1 July snowfall 0.0  
Since 1 September snowfall 0.0  
Snow Depth -    
Sea Level Pressure  
Sea Level Pressure 29.86 in    
Wind  
Wind Speed 6 mph (WNW)    
Max Wind Speed 16 mph    
Max Gust Speed 25 mph    
Visibility 9 miles    
Events Rain    
T = Trace of Precipitation, MM = Missing Value Source: NWS Daily Summary

Daily Weather History Graph

Daily Weather History Graph

Search for Another Location

Airport or City:

Trip Planner

Search our weather history database for the weather conditions in past years. The results will help you decide how hot, cold, wet, or windy it might be!

Date:

Astronomy

Sep. 06, 2013 Rise Set
Actual Time 7:10 AM HADT 8:31 PM HADT
Civil Twilight 6:33 AM HADT 9:09 PM HADT
Nautical Twilight 5:47 AM HADT 9:54 PM HADT
Astronomical Twilight 4:55 AM HADT 10:45 PM HADT
Moon 8:58 AM HADT (9/6) 8:35 PM HADT (9/6)
Length of Visible Light 14h 36m
Length of Day
13h 21m
New Moon, 2% of the Moon is Illuminated
Sep 6
New Moon
Sep 12
First Quarter
Sep 19
Full
Sep 26
Last Quarter
Oct 4
New

Hourly Weather History & Observations

Time (HADT) Temp. Windchill Dew Point Humidity Pressure Visibility Wind Dir Wind Speed Gust Speed Precip Events Conditions
12:01 AM 48.0 °F - 46.9 °F 96% 30.01 in 10.0 mi SW 4.6 mph - N/A   Overcast
12:15 AM 46.4 °F 45.2 °F 46.4 °F 100% 29.73 in 10.0 mi WSW 3.5 mph - N/A   Overcast
1:01 AM 48.0 °F - 46.9 °F 96% 30.01 in 10.0 mi Calm Calm - 0.01 in   Overcast
1:36 AM 48.2 °F - 46.4 °F 93% 29.72 in 10.0 mi North - - N/A   Overcast
1:46 AM 48.2 °F - 46.4 °F 93% 29.71 in 10.0 mi SSW 4.6 mph - N/A   Overcast
2:01 AM 48.0 °F - 46.9 °F 96% 29.99 in 10.0 mi Calm Calm - N/A   Overcast
3:01 AM 46.9 °F - 46.9 °F 100% 29.98 in 10.0 mi Calm Calm - N/A   Overcast
4:01 AM 48.9 °F - 46.9 °F 93% 29.97 in 10.0 mi West 4.6 mph - N/A   Overcast
5:01 AM 50.0 °F - 46.0 °F 86% 29.96 in 10.0 mi West 6.9 mph - N/A   Overcast
6:01 AM 50.0 °F - 46.0 °F 86% 29.96 in 10.0 mi West 4.6 mph - N/A   Overcast
7:01 AM 48.9 °F - 46.9 °F 93% 29.94 in 6.0 mi WNW 3.5 mph - 0.04 in Rain Light Rain
8:01 AM 50.0 °F - 46.9 °F 89% 29.96 in 10.0 mi NW 5.8 mph - 0.02 in Rain Light Rain
8:19 AM 50.0 °F - 48.2 °F 94% 29.68 in 10.0 mi NW 5.8 mph - 0.00 in   Overcast
9:01 AM 50.0 °F - 48.0 °F 93% 29.96 in 10.0 mi NW 8.1 mph - 0.00 in Rain Light Rain
10:01 AM 50.0 °F - 46.4 °F 87% 29.69 in 2.5 mi WNW 9.2 mph - 0.01 in Rain Light Rain
10:16 AM 48.2 °F - 46.4 °F 93% 29.69 in 7.0 mi West 16.1 mph 19.6 mph 0.02 in Rain Light Rain
11:01 AM 48.9 °F - 46.0 °F 90% 29.97 in 5.0 mi WNW 10.4 mph 25.3 mph 0.02 in Rain Light Rain
11:20 AM 48.2 °F - 46.4 °F 93% 29.70 in 2.5 mi West 9.2 mph 18.4 mph 0.00 in Rain Light Rain
11:30 AM 48.2 °F - 46.4 °F 93% 29.70 in 5.0 mi WNW 10.4 mph 19.6 mph 0.00 in Rain Light Rain
12:01 PM 50.0 °F - 46.4 °F 87% 29.70 in 10.0 mi WNW 11.5 mph 21.9 mph 0.00 in Rain Light Rain
12:52 PM 48.2 °F - 44.6 °F 87% 29.70 in 5.0 mi WNW 13.8 mph 23.0 mph 0.00 in   Overcast
1:01 PM 50.0 °F - 44.6 °F 82% 29.70 in 5.0 mi NW 11.5 mph 17.3 mph 0.00 in Rain Light Rain
2:01 PM 51.1 °F - 45.0 °F 80% 29.98 in 10.0 mi WNW 12.7 mph - 0.00 in   Overcast
3:01 PM 52.0 °F - 43.0 °F 71% 29.99 in 10.0 mi Variable 3.5 mph - N/A   Overcast
4:01 PM 51.1 °F - 44.1 °F 77% 29.99 in 10.0 mi NW 13.8 mph 19.6 mph N/A   Overcast
5:01 PM 51.1 °F - 44.1 °F 77% 29.99 in 10.0 mi NW 12.7 mph 21.9 mph N/A   Overcast
5:57 PM 51.8 °F - 42.8 °F 71% 29.72 in 10.0 mi NW 12.7 mph 16.1 mph N/A   Scattered Clouds
6:01 PM 52.0 °F - 43.0 °F 71% 30.00 in 10.0 mi NW 10.4 mph - N/A   Scattered Clouds
7:01 PM 50.0 °F - 42.1 °F 74% 30.01 in 10.0 mi NW 9.2 mph - N/A   Mostly Cloudy
7:38 PM 48.2 °F - 42.8 °F 82% 29.73 in 10.0 mi NW 8.1 mph - N/A   Overcast
8:01 PM 48.9 °F - 43.0 °F 80% 30.02 in 10.0 mi NW 9.2 mph - N/A   Overcast
8:42 PM 48.2 °F - 42.8 °F 82% 29.75 in 10.0 mi NW 8.1 mph - N/A   Overcast
8:49 PM 48.2 °F - 42.8 °F 82% 29.75 in 10.0 mi NW 6.9 mph - N/A   Overcast
9:01 PM 48.0 °F - 43.0 °F 83% 30.04 in 10.0 mi WNW 8.1 mph - N/A   Overcast
9:08 PM 48.2 °F - 42.8 °F 82% 29.75 in 10.0 mi NW 6.9 mph - N/A   Overcast
10:01 PM 48.2 °F - 42.8 °F 82% 29.76 in 10.0 mi WNW 10.4 mph - N/A   Overcast
11:01 PM 46.4 °F 44.3 °F 42.8 °F 87% 29.77 in 10.0 mi NNW 4.6 mph - N/A   Overcast